Terug naar catalogus

COSMOS 1930

ActiefMilitairLEO
NORAD 18943·PAYLOAD·🇷🇺 Russia

Gelanceerd Mar 11, 1988 vanaf Plesetsk Cosmodrome

Loading…

Volgende Passages (komende 24 uur)

TLE

VersSource: Space-Track

Epoch: Sep 14, 2026, 13:49 UTC

1 18943U 88016G   26257.57602622 -.00000002  00000-0  85419-4 0  9994
2 18943  74.0063 311.7196 0030102 322.9954 208.1793 12.56642226766662

Volg COSMOS 1930 in realtime met AllMySat

Download on the App Store